GFSWCAN_con_3kmhel_021.txt.gz
Helicity
26 43 59 65 61 66 70 66 75 84 83 77 59 43 42 35 27 61 61 73 103 104 163 189 188 79 22 15 11 21 -34 38 64 47 36 27 43 52 93 74 123 57 310 143 146 220 342 173 162 245 298 334 341 294
35 51 60 70 77 85 87 95 102 110 97 86 83 83 64 53 39 30 67 53 67 111 153 48 108 169 176 206 48 30 23 -2 -26 -13 -1 7 66 45 40 29 54 125 205 197 213 254 75 -51 224 300 281 211 465 355
39 51 59 61 63 87 108 107 128 141 138 117 82 59 63 73 59 72 94 31 61 124 167 97 91 96 51 19 48 35 43 6 57 9 -43 -3 20 16 19 16 90 54 158 157 317 153 106 66 222 432 394 341 379 427
38 47 55 62 67 85 101 115 141 134 115 116 111 77 42 43 46 69 134 118 137 180 180 272 30 41 25 62 126 214 183 65 53 48 58 16 29 -10 17 54 32 29 82 95 269 198 213 88 209 295 402 389 433 425
38 45 59 69 67 95 112 147 153 155 122 125 117 70 48 86 36 45 114 158 213 175 189 203 120 39 12 35 95 149 175 196 137 99 28 57 76 38 164 -35 -9 51 26 104 217 265 254 307 249 283 275 335 354 314
45 41 47 71 65 82 112 156 182 159 140 136 141 85 71 62 103 110 69 79 167 159 141 64 51 34 24 39 145 182 225 155 100 50 41 31 155 57 62 -52 2 43 100 141 204 268 133 84 51 103 174 131 151 182
53 50 46 66 58 56 91 134 159 134 140 152 122 78 71 102 169 158 95 114 203 176 109 59 52 22 47 15 -20 -20 57 64 74 36 91 117 80 12 181 56 78 248 183 169 182 211 212 187 18 128 136 140 107 55
58 60 66 68 75 63 92 121 121 131 171 139 74 72 149 172 205 226 130 162 228 162 89 104 83 40 -29 -35 -23 -43 -39 -16 8 40 77 86 47 19 51 105 69 131 167 188 265 307 264 239 165 136 131 93 151 122
58 72 79 83 82 83 94 142 83 136 178 85 39 164 151 209 266 198 186 108 144 78 147 139 175 95 45 -22 -69 -51 -40 41 27 62 91 113 122 61 265 182 34 164 337 296 334 401 272 193 199 160 144 176 155 172
57 73 81 95 104 96 99 123 64 126 138 1 97 170 221 165 107 142 148 192 96 128 162 167 122 125 54 63 75 48 70 115 90 56 62 68 199 190 102 46 83 145 168 212 269 303 436 170 169 186 172 140 151 166
52 53 70 82 92 113 97 111 83 57 13 85 131 172 173 77 101 242 288 207 170 179 184 179 136 123 75 67 61 50 90 60 65 77 83 87 155 142 136 130 109 102 245 229 184 213 145 124 165 168 179 178 190 246
76 80 74 65 83 107 99 154 80 75 119 184 206 173 156 176 190 199 219 231 130 144 327 233 139 105 122 76 106 109 137 133 153 148 133 134 271 178 124 157 214 114 155 242 284 263 285 263 217 161 152 119 78 69
92 88 86 78 90 98 177 149 124 108 114 114 160 226 185 201 217 119 228 166 210 274 252 331 281 284 232 281 194 149 204 147 172 236 251 288 551 145 170 96 88 129 128 74 95 66 50 84 97 14 23 27 52 116
87 95 103 109 62 114 118 142 147 110 177 78 90 26 234 259 172 254 184 155 213 316 244 248 190 174 197 228 220 127 241 239 159 141 152 114 116 152 145 192 255 227 144 50 21 -2 15 69 92 101 89 71 84 71
95 107 113 74 125 115 114 98 52 151 153 116 145 157 212 208 226 243 209 205 204 151 146 160 233 199 172 189 151 141 112 145 142 182 95 103 51 123 52 66 2 52 62 122 120 151 134 89 72 102 107 101 107 93
93 51 80 139 147 141 120 78 98 134 150 127 109 144 203 157 192 278 308 250 299 201 163 163 216 280 231 179 157 121 139 117 113 184 200 108 113 47 19 2 -9 5 18 35 48 59 107 132 97 80 120 133 111 116
56 86 142 149 152 143 88 120 159 138 149 116 129 185 153 158 148 138 133 174 344 326 169 144 129 72 187 207 212 197 138 175 291 219 151 87 91 43 -46 -15 -1 -5 1 10 21 37 39 68 96 113 98 70 80 97
107 131 132 131 70 68 106 95 103 64 88 133 143 171 121 138 127 119 222 227 192 263 204 83 129 55 21 45 67 114 140 134 99 78 89 60 -5 -27 -25 -16 5 11 19 26 53 77 113 99 64 48 30 41 95 112
162 156 139 171 66 26 16 68 56 -2 98 133 121 131 101 40 89 82 99 127 164 188 149 60 -29 20 22 121 106 93 97 61 49 29 52 85 59 70 97 129 123 99 71 61 60 35 43 55 33 42 49 51 65 92
68 96 97 67 53 17 12 33 46 30 50 83 82 120 110 40 106 68 74 64 57 73 54 -25 -40 -33 -3 10 3 3 26 30 -1 27 52 104 105 221 231 189 146 133 133 118 119 131 106 98 79 63 55 72 79 78
6 17 17 44 39 30 46 40 24 38 42 41 56 57 52 91 15 -3 17 30 29 8 -30 -43 -31 -20 -40 -3 10 -12 23 35 21 -6 17 102 164 209 230 193 150 142 126 92 47 58 100 76 75 85 78 60 55 82
29 3 6 16 28 36 35 45 54 46 73 30 35 30 37 40 7 1 10 -16 -16 -2 19 -18 -43 -27 10 30 14 14 1 82 114 126 140 112 135 162 147 109 60 22 7 5 19 37 42 41 74 101 108 103 152 180
12 11 6 4 7 -4 32 46 37 60 59 42 35 60 39 33 40 49 21 7 18 72 86 46 -10 -15 4 -10 2 4 -4 50 84 89 83 77 82 89 91 90 50 15 4 -3 -35 -35 1 52 81 100 156 234 215 221
6 6 5 0 12 29 25 39 41 51 57 49 44 47 50 58 61 76 69 61 108 135 61 34 28 16 -3 2 -20 -37 -23 -38 52 110 97 67 54 51 24 10 -4 -27 -40 -16 1 20 63 74 113 127 137 151 152 140
17 6 -2 21 13 14 26 31 39 38 52 47 49 42 42 53 96 97 112 109 90 84 84 74 57 46 16 -19 -2 22 44 22 24 77 125 103 68 65 44 5 -21 -38 -50 -26 -27 31 77 87 99 109 89 58 54 50
23 27 20 17 23 29 33 28 29 36 67 65 55 53 68 89 95 108 110 116 107 70 60 76 92 105 91 56 33 25 10 20 43 94 106 103 65 37 26 36 43 44 38 1 13 23 45 52 60 71 71 64 48 9
9 17 15 19 31 29 22 28 30 36 41 37 45 70 70 82 74 77 71 78 96 112 135 158 197 160 112 92 66 48 44 38 42 57 91 139 151 127 102 83 82 57 65 53 56 40 31 35 44 42 39 34 28 22
11 27 6 -3 9 39 31 36 39 33 17 18 32 38 52 57 55 52 56 51 57 127 213 221 219 206 166 122 82 71 64 41 44 76 131 171 174 165 156 128 115 124 112 99 79 69 52 36 31 35 46 46 36 26
34 38 31 3 3 17 39 44 33 30 24 17 30 22 16 11 51 55 64 117 173 212 259 294 246 261 235 192 138 94 69 45 32 47 77 83 83 91 89 72 85 104 101 76 78 62 60 50 45 43 39 22 14 22
35 99 63 47 45 52 75 73 58 42 46 48 57 60 49 58 91 110 131 225 234 212 215 209 209 224 212 175 122 85 59 28 -11 1 37 44 39 38 31 40 66 93 88 60 53 39 75 82 61 58 50 39 32 28
79 81 76 98 107 117 120 133 128 96 77 91 75 94 104 117 140 168 225 239 258 274 277 210 192 185 187 153 138 120 75 33 5 5 -4 7 25 40 35 33 56 70 75 76 71 59 58 49 36 34 33 28 27 27
85 85 91 91 108 107 163 161 169 153 130 165 134 154 173 149 152 216 244 282 275 272 229 200 190 128 96 102 111 89 90 65 21 6 10 19 20 22 23 24 28 34 44 56 56 49 48 39 25 21 19 23 23 29
18 36 61 89 99 101 113 166 138 125 160 204 191 221 197 180 169 207 218 212 249 259 204 171 153 131 103 101 88 87 100 76 46 29 15 21 25 32 29 26 32 31 31 37 34 31 30 30 24 26 26 22 18 18

GFSWCAN_con_3kmhel_024.txt.gz
Helicity
38 41 39 46 56 68 74 84 85 89 87 83 71 69 49 48 56 133 152 132 124 211 221 143 36 70 35 14 22 -26 -29 16 35 21 16 11 26 24 34 68 90 115 14 27 121 187 116 116 130 141 140 91 229 119
41 42 47 50 59 74 87 104 112 131 130 113 91 66 67 47 47 60 167 121 118 250 265 170 189 185 192 188 70 87 45 -8 -9 27 27 23 6 -35 -2 11 90 121 139 176 105 160 131 64 108 61 -41 83 174 167
48 46 48 53 72 72 88 110 125 138 139 116 93 91 80 59 53 50 166 154 173 224 187 91 103 67 70 51 36 73 36 36 48 41 8 23 9 20 18 19 53 53 58 106 151 104 78 119 74 58 14 125 207 210
44 46 53 57 75 78 86 101 122 130 132 113 105 98 84 72 58 92 96 135 190 203 154 146 57 83 49 117 165 188 107 16 30 40 -16 -3 -0 -39 28 42 39 62 47 60 -9 66 99 123 -54 101 98 193 221 259
47 55 64 63 72 78 89 65 115 115 117 128 114 103 81 71 54 68 101 132 224 216 202 237 84 8 8 55 71 105 169 149 80 13 6 24 47 42 87 -5 83 163 106 89 42 -11 99 106 41 154 161 271 271 238
53 60 65 60 73 78 80 64 107 114 105 161 122 107 81 78 116 129 48 52 111 136 140 122 26 -9 19 64 129 165 176 120 97 45 79 104 146 96 99 214 328 103 54 79 -87 62 32 85 168 183 267 277 332 278
57 68 76 70 71 64 85 68 102 118 109 135 91 54 78 110 209 167 111 117 164 121 127 148 90 15 29 4 -6 -3 85 81 98 112 121 126 134 178 333 421 334 46 -17 -8 -27 -37 80 146 183 325 335 437 446 412
61 73 80 64 68 33 79 78 100 111 111 86 44 45 112 137 190 148 160 246 198 173 146 142 133 71 1 68 43 4 17 21 83 135 171 265 230 192 330 441 341 211 115 8 -44 42 88 104 268 422 481 417 357 276
77 80 63 63 51 29 75 74 80 112 91 53 40 114 98 107 273 237 94 120 125 129 158 140 195 128 44 52 57 55 82 182 124 221 260 145 243 132 367 355 105 46 6 -71 192 167 223 227 154 174 352 312 234 179
83 91 90 91 73 45 74 70 120 134 91 23 71 99 113 91 -3 203 141 186 189 185 153 180 138 154 92 75 85 88 109 136 148 179 179 182 244 366 214 184 353 289 203 160 255 277 378 310 166 67 82 57 61 54
84 90 95 100 89 97 89 112 148 115 19 70 71 118 73 3 124 245 227 160 161 166 179 144 143 135 102 123 137 141 151 178 204 205 174 259 302 258 168 159 189 143 219 341 247 152 165 211 173 145 82 98 103 116
77 70 85 101 114 106 126 150 108 78 97 173 134 76 103 122 129 214 239 239 202 234 308 276 233 287 246 168 199 188 211 203 227 215 173 258 198 304 307 138 215 155 110 256 246 230 226 233 106 82 90 100 103 111
65 66 101 117 104 117 186 154 81 60 64 122 189 108 121 117 161 203 238 257 194 234 188 212 174 203 234 237 279 223 168 205 185 217 278 292 146 260 232 157 151 195 264 283 336 342 248 173 190 206 171 155 176 183
76 98 99 86 121 157 157 116 90 115 137 111 154 201 86 43 96 159 195 174 175 193 169 199 166 126 161 167 224 216 224 200 188 129 123 131 152 77 52 133 132 179 122 152 172 127 109 149 148 116 62 96 67 99
115 105 65 106 139 148 106 101 123 176 177 91 151 165 231 178 182 213 215 181 133 111 115 132 235 198 199 204 163 160 134 117 125 89 32 31 14 9 -62 -41 -52 -54 11 18 4 18 -3 66 111 106 108 83 74 65
102 55 100 122 135 130 121 107 114 134 97 131 174 158 208 131 157 171 216 206 162 104 76 81 94 166 231 249 212 174 185 43 74 100 27 53 67 88 13 -25 -39 -55 -47 -19 16 55 90 87 41 47 108 109 102 108
53 78 92 141 134 114 90 61 104 64 65 64 130 154 165 138 142 167 149 157 222 193 175 127 116 101 34 38 74 102 71 26 64 13 -8 -28 -24 -34 -44 -13 -17 -14 36 80 99 108 50 44 100 124 106 82 74 71
82 95 124 116 74 74 90 75 26 27 26 84 82 35 -76 106 25 12 126 205 73 134 112 81 31 92 -5 31 39 125 75 55 -8 20 38 33 37 39 32 21 13 2 3 8 19 40 68 64 61 30 24 20 65 105
146 142 158 145 41 24 9 37 22 5 38 75 123 110 81 91 12 69 73 113 123 106 89 36 3 33 4 13 22 4 -0 -3 -17 20 74 105 100 87 68 64 62 59 51 34 29 10 11 21 -0 1 -12 -0 15 36
65 71 68 59 31 21 26 41 34 45 28 33 38 18 6 -9 -21 -14 15 47 45 33 15 -50 -63 -63 -43 -34 -39 -34 -33 -43 -60 12 83 116 126 146 145 85 60 50 55 61 65 68 43 45 50 42 47 42 39 54
10 15 16 40 27 30 45 46 37 78 75 70 40 55 42 47 6 -13 -7 -3 -28 -41 -61 -58 -54 -40 -48 -33 -50 -56 5 4 -4 -15 -15 49 67 66 69 54 48 36 18 9 15 23 22 1 -9 27 71 83 76 92
26 6 8 6 17 26 48 45 59 84 83 89 76 72 64 63 41 47 47 -0 -9 -5 -9 -12 -29 -29 -11 -11 -64 -63 -20 27 61 78 103 85 80 62 37 15 4 -5 -4 -2 -2 -6 -1 18 43 110 150 152 167 167
10 4 5 -7 10 18 45 39 47 45 52 39 37 48 49 69 92 91 72 62 51 43 25 17 5 -13 -10 -26 -23 -14 6 42 71 76 68 44 25 14 10 1 -29 -41 -42 -38 -55 -46 -24 21 78 100 111 124 119 119
3 1 4 2 12 39 33 45 50 63 56 36 39 39 44 66 93 110 85 83 92 61 48 50 53 47 28 30 7 -1 6 10 21 39 52 56 53 50 46 35 18 -4 -35 -57 -45 -17 5 10 26 43 46 52 51 49
22 -10 -5 20 14 14 30 41 51 59 64 55 49 54 67 76 111 108 100 87 72 67 50 65 86 91 74 20 -2 9 24 35 29 35 43 35 33 44 51 44 31 11 5 15 4 13 14 15 16 18 21 12 8 8
15 11 9 17 19 24 25 28 31 42 57 65 63 69 81 97 97 107 102 91 76 93 92 109 141 138 99 72 48 29 18 28 44 62 56 70 70 64 56 54 40 22 29 5 -2 13 21 25 27 29 21 13 18 14
21 10 7 10 29 31 27 34 41 48 55 56 60 67 68 78 84 87 74 75 63 79 104 120 153 151 140 110 80 59 49 46 62 84 87 106 102 82 62 43 26 17 9 6 14 32 39 31 23 18 17 18 23 24
27 27 20 11 15 26 29 42 51 54 53 42 51 50 57 52 48 51 66 57 67 111 156 144 148 188 188 162 131 96 72 56 58 89 114 118 107 100 103 89 70 48 51 57 49 38 31 29 34 28 23 24 26 22
36 48 58 45 38 41 44 53 55 48 68 68 69 60 54 58 71 99 110 119 151 199 199 188 161 196 213 195 159 124 92 65 46 47 58 60 66 73 73 62 62 64 70 69 64 44 35 22 23 27 25 18 9 5
39 79 60 53 62 47 51 97 88 89 88 88 87 76 64 55 82 128 155 172 190 186 187 170 174 198 188 179 142 109 80 61 37 27 24 22 30 36 31 32 39 42 39 45 48 43 55 50 38 35 32 26 21 22
75 81 57 74 81 82 113 165 182 146 129 102 111 99 86 84 99 125 157 174 205 234 230 203 171 142 157 139 134 124 83 58 35 12 10 17 25 27 24 21 22 23 30 42 52 52 45 37 28 34 35 34 30 31
74 104 101 75 81 102 139 155 172 176 159 153 154 170 136 141 156 132 161 231 235 210 185 186 160 122 99 81 86 95 82 63 54 33 32 34 37 46 52 42 30 27 38 49 50 46 46 42 36 34 31 26 22 22
36 67 74 85 93 90 101 136 121 130 128 133 147 199 185 186 177 174 149 143 184 193 184 138 115 121 100 72 61 53 61 64 49 38 42 46 59 60 67 69 52 43 46 47 42 40 41 40 37 36 30 28 31 34

GFSWCAN_con_3kmhel_030.txt.gz
Helicity
53 57 57 59 58 64 73 81 61 91 89 72 74 87 89 89 110 115 159 204 225 216 175 101 88 105 59 80 54 -12 -14 22 7 16 29 24 36 25 61 76 123 91 5 -21 54 162 127 142 310 243 241 356 218 199
56 60 67 68 65 63 79 77 71 80 87 69 66 92 85 103 85 94 136 190 166 189 189 61 56 51 89 64 40 51 18 -5 -7 12 23 42 36 50 40 85 34 135 157 214 70 75 176 199 173 146 177 202 277 267
64 74 77 71 72 69 79 78 74 67 71 56 68 85 97 92 74 64 120 180 196 174 146 61 43 18 91 109 46 78 58 39 4 3 -23 12 16 39 8 25 51 62 58 133 177 140 182 206 260 160 281 205 50 104
75 82 85 88 88 86 85 62 72 40 46 51 64 86 82 53 46 51 103 144 148 157 138 61 70 19 30 57 52 85 75 9 -1 -42 6 17 36 -11 5 13 24 26 48 63 93 94 105 104 148 234 171 205 260 220
84 91 94 102 99 110 77 65 70 21 29 60 69 79 45 8 42 64 87 89 120 137 166 149 69 27 -2 22 46 63 86 65 36 22 51 116 58 27 53 -10 3 16 23 41 62 36 61 101 89 131 147 158 201 94
89 93 98 98 94 94 62 65 50 30 35 74 59 38 4 20 81 61 62 80 76 101 101 80 55 51 34 16 41 76 62 61 54 81 179 145 174 96 153 267 274 121 56 55 15 45 55 53 56 96 288 140 198 121
98 90 85 78 59 53 53 60 49 33 71 68 33 14 14 85 20 29 50 87 138 96 115 92 100 133 108 126 142 119 107 154 183 337 580 620 519 368 509 685 807 375 162 62 14 81 49 34 32 50 82 107 71 57
91 88 78 55 38 52 42 43 47 54 62 39 32 81 97 53 40 30 50 134 171 111 123 152 143 172 207 179 265 286 318 293 355 452 489 531 422 486 551 589 569 540 420 184 60 70 3 55 60 106 84 157 84 91
79 75 52 40 39 43 45 57 51 50 60 16 71 68 72 48 49 40 88 71 128 149 176 253 246 201 249 264 232 302 345 357 300 474 477 333 333 446 788 494 101 6 42 138 43 -46 -15 -13 38 120 87 146 105 56
81 59 48 47 47 69 83 69 44 44 22 54 53 51 106 99 122 122 150 124 140 232 286 372 351 339 314 353 311 243 274 289 290 345 403 525 500 638 679 493 243 22 2 84 58 75 58 61 143 90 19 48 24 91
75 64 62 83 101 123 111 67 52 34 46 33 54 69 30 21 121 141 122 163 207 191 300 353 407 369 348 341 305 270 219 213 289 255 380 530 538 409 718 416 324 167 205 194 17 17 24 99 30 111 82 226 179 205
68 77 90 99 146 155 102 45 43 53 5 -44 26 55 82 109 120 144 159 147 120 149 249 271 229 287 265 292 210 218 198 171 149 190 271 345 425 260 305 345 328 406 231 294 412 203 192 431 397 336 428 377 259 189
82 87 112 135 188 157 72 17 22 -0 74 111 118 78 44 102 127 161 184 125 103 138 183 185 126 107 127 170 128 87 62 72 116 100 167 172 134 106 143 124 92 183 247 286 402 411 375 265 332 298 284 286 277 399
109 114 123 142 222 134 58 5 25 55 36 46 95 52 -42 96 155 183 169 140 108 166 187 131 87 70 59 49 41 43 97 26 -11 24 -0 70 56 71 14 -9 -35 9 8 58 76 94 139 125 141 236 241 232 246 266
98 106 101 117 141 123 81 13 96 109 30 11 -2 -24 68 175 187 149 92 78 21 42 71 45 55 4 2 38 11 29 19 -63 -44 -61 -16 42 38 20 49 -10 -67 -78 -41 -54 -64 -41 -43 -19 -7 73 59 52 83 66
90 92 43 37 74 85 74 12 18 50 54 36 -2 24 40 -4 -20 -16 36 -31 -31 14 -15 42 65 36 48 5 -16 -30 -48 -25 19 24 31 46 38 1 -10 -17 -17 -40 -50 -37 -22 -14 6 26 5 -8 21 28 37 36
63 34 18 36 64 107 67 24 10 15 -5 1 18 8 12 6 -20 -20 -29 -30 -18 -5 50 94 79 46 17 37 44 38 59 82 -21 -3 -8 -14 -12 -12 7 9 14 11 5 -11 -18 -6 -9 -6 19 61 82 61 64 70
40 41 45 77 48 39 34 10 16 12 -3 11 17 22 24 25 11 -3 -12 -9 11 28 43 30 31 100 68 67 52 25 13 7 13 18 15 32 38 39 6 4 18 12 16 16 18 10 22 24 27 28 36 37 38 53
59 66 97 84 38 20 16 55 35 22 15 35 47 40 41 41 43 42 30 19 23 37 61 60 60 51 60 27 22 28 32 29 21 40 52 59 60 39 32 28 21 20 18 18 20 15 8 25 33 38 35 44 60 81
29 41 57 56 61 39 36 49 52 46 43 45 55 54 70 62 60 58 51 39 37 27 7 1 17 16 24 25 16 19 25 25 32 54 59 72 54 36 35 25 14 14 15 19 16 23 27 35 43 58 73 77 91 106
36 12 12 18 19 22 38 46 47 41 41 41 49 47 61 68 75 55 55 51 40 26 32 31 36 46 22 22 20 11 31 28 40 59 62 57 51 52 37 24 19 16 22 23 25 28 40 49 48 52 67 78 71 57
-4 6 10 13 33 50 50 34 33 49 41 35 41 40 51 56 59 69 39 65 54 64 66 64 75 58 73 59 35 25 24 15 36 46 59 65 70 59 46 35 26 22 19 18 25 35 46 62 61 59 55 37 20 26
18 19 24 25 32 33 41 41 43 50 38 48 44 42 51 54 69 47 60 64 88 90 76 76 87 77 71 88 68 58 31 23 41 47 46 43 60 62 52 51 39 33 29 29 27 26 31 24 33 38 34 38 41 45
30 -1 7 13 14 32 40 50 51 53 48 44 41 40 51 57 61 49 60 77 95 93 103 88 79 71 108 125 98 92 60 41 43 46 52 47 56 65 50 45 46 48 30 26 28 27 28 31 16 29 28 27 26 30
8 -7 1 3 21 30 42 54 59 53 47 45 39 49 65 57 40 57 58 90 91 88 92 90 80 75 57 64 92 112 89 49 47 46 63 40 43 48 60 52 47 52 33 38 45 42 42 36 36 29 27 30 29 27
12 12 15 19 26 20 31 39 48 49 47 55 57 67 72 59 54 59 71 75 74 82 80 66 65 59 91 116 73 96 110 68 47 47 71 48 55 58 59 57 57 74 31 19 25 32 37 37 36 30 28 22 -5 18
18 24 28 15 15 23 33 45 49 56 68 77 88 90 96 94 107 124 102 70 52 83 103 111 97 83 89 116 114 115 94 69 61 56 51 36 32 29 28 31 35 38 23 24 29 31 28 24 24 25 27 25 27 27
13 34 25 47 35 41 43 50 56 65 77 98 103 111 117 130 119 156 126 106 129 138 157 174 172 152 136 127 114 99 105 91 92 44 39 37 35 27 16 12 17 5 -3 19 22 12 13 17 18 19 22 21 23 23
35 41 42 44 52 63 58 63 60 79 90 105 96 102 113 128 118 137 151 146 117 111 146 174 204 209 181 147 120 85 85 77 91 81 57 55 49 51 28 21 16 15 10 18 74 29 29 24 24 13 10 11 16 20
43 53 34 42 55 55 61 71 68 84 91 78 99 105 96 110 133 125 132 152 112 124 151 181 210 162 169 134 157 167 124 80 76 67 61 52 48 40 33 25 19 13 10 7 17 54 34 19 28 12 4 5 8 11
49 44 32 34 45 38 50 71 80 82 91 99 101 68 73 102 115 101 91 110 101 110 149 181 190 182 162 155 134 111 114 171 113 71 36 32 34 36 28 20 15 15 17 18 19 21 15 6 12 11 8 6 5 1
57 53 53 42 34 67 64 82 85 79 86 69 59 68 78 84 90 113 80 76 89 115 159 150 165 246 177 150 121 97 68 70 95 73 53 36 28 26 18 25 25 22 24 23 24 27 24 25 29 22 18 15 13 22
53 46 36 40 59 65 92 75 82 76 80 68 72 89 88 87 124 136 89 84 111 142 163 177 205 190 166 131 103 90 56 68 106 93 69 46 34 27 24 30 39 24 23 25 26 29 30 29 24 20 16 14 15 11

GFSWCAN_con_3kmhel_033.txt.gz
Helicity
54 57 61 67 73 82 79 75 62 53 43 43 58 81 70 63 68 93 159 242 183 198 174 118 49 75 44 42 60 10 26 44 31 16 49 46 60 53 108 103 107 27 45 168 195 259 358 150 123 197 181 187 359 384
58 68 70 77 84 86 83 80 56 51 33 35 58 67 56 65 60 73 155 162 164 204 171 56 41 38 40 37 41 52 -8 5 -22 -2 23 43 62 58 106 139 18 178 100 77 83 118 78 130 102 104 37 151 270 396
66 72 77 81 84 86 86 72 54 53 22 43 56 60 60 57 44 82 124 124 168 220 200 110 55 42 64 63 47 81 22 -2 -28 -38 -53 -12 10 54 77 42 120 100 90 139 166 138 159 200 116 136 101 97 147 188
73 77 83 74 78 78 64 61 48 35 31 53 59 65 52 36 52 80 135 120 148 170 122 78 38 32 19 1 47 97 71 15 -17 -18 -20 -16 -12 -1 6 37 96 106 131 122 114 97 93 124 177 110 146 112 121 164
89 94 88 72 66 57 63 52 39 33 46 60 61 45 19 35 55 55 84 107 127 134 147 117 48 42 19 -6 25 58 52 58 24 47 70 94 34 0 1 3 4 7 21 77 131 39 51 65 76 69 101 177 142 5
106 92 75 67 65 69 47 36 23 36 60 44 22 8 29 50 44 76 67 137 116 121 143 121 118 167 97 95 78 57 48 49 120 331 388 340 290 154 250 330 283 91 22 17 -5 81 105 83 107 122 103 148 222 223
94 77 62 56 51 40 28 19 24 38 56 24 19 14 33 35 29 11 42 84 158 150 193 140 207 258 224 203 225 157 132 179 248 297 338 453 456 326 499 711 857 469 342 277 103 37 40 89 150 99 118 106 168 214
88 74 61 43 42 39 37 26 30 49 40 23 53 51 44 46 43 47 64 161 177 145 198 248 196 214 289 235 271 279 295 360 372 330 298 397 340 373 412 556 441 269 91 74 100 79 35 61 108 144 97 82 158 182
81 65 52 46 53 69 64 53 44 46 24 25 47 63 75 54 47 39 52 95 167 231 197 262 258 165 128 137 124 255 266 271 340 570 480 355 307 353 557 454 232 15 47 22 31 84 99 53 26 55 31 48 151 305
77 51 51 59 77 90 80 47 43 30 20 43 48 67 116 87 114 107 144 119 167 263 237 269 224 200 200 230 170 155 158 227 212 294 408 393 393 371 353 544 360 131 10 59 -11 -24 -1 13 -1 -20 -36 44 71 181
89 74 83 100 114 123 67 18 34 42 64 58 36 46 77 123 116 123 99 80 121 141 158 211 242 178 171 151 137 128 142 145 196 241 277 302 317 283 319 291 456 349 311 138 99 71 16 49 43 39 66 87 36 49
99 71 93 116 123 103 33 -18 -24 42 3 13 18 61 119 151 109 62 39 58 68 88 125 107 103 156 118 161 120 133 64 125 118 164 179 283 253 169 277 211 309 183 90 260 448 401 427 391 325 437 408 449 368 428
94 79 100 99 102 92 -6 -10 12 25 74 70 51 39 47 49 -6 27 88 86 101 126 184 152 43 67 103 115 78 52 18 45 94 113 115 113 17 77 68 82 169 207 133 49 91 243 357 489 504 530 377 457 460 506
83 83 93 92 113 58 34 -39 36 36 3 17 39 20 -15 -30 34 121 141 86 42 53 43 98 54 89 58 39 23 30 27 39 -11 -21 -36 16 3 0 3 1 10 13 49 92 95 -11 -1 148 140 69 194 334 334 373
90 90 63 53 60 60 51 8 74 85 17 14 5 2 5 57 72 65 9 19 -28 9 34 20 32 36 52 39 -5 -10 -4 -23 24 -35 -45 -50 21 -30 -14 -38 -35 -13 -8 -22 -1 19 51 30 44 20 -41 -36 11 78
88 77 31 -21 50 88 54 26 50 22 33 34 1 -17 13 -24 -22 -14 -7 -4 13 27 10 47 35 44 45 32 24 18 1 -15 31 37 9 0 -21 -15 -15 -13 -27 -30 -18 -17 -12 6 -11 13 -19 -24 6 16 21 46
63 31 -17 -13 40 60 53 37 16 22 4 1 5 4 0 -1 -3 -3 -5 -17 30 17 26 38 32 25 47 67 61 49 37 35 44 13 31 38 9 1 5 11 -1 -2 -1 4 -5 -6 11 -7 -18 11 4 -13 -2 33
41 6 -9 25 27 35 46 25 22 15 17 16 13 16 19 26 28 26 24 22 27 19 16 28 33 40 60 57 46 47 45 56 42 44 60 25 17 18 8 6 7 9 7 10 22 3 9 40 40 10 21 34 18 15
37 38 67 83 30 20 20 36 15 22 20 31 33 23 20 21 22 22 20 18 27 20 32 32 37 35 50 53 40 41 44 42 50 46 57 35 13 6 3 6 4 12 15 15 24 31 13 16 25 42 45 45 39 60
51 58 51 55 37 29 26 32 19 26 20 38 48 28 26 30 42 28 19 8 14 22 24 23 31 39 40 43 33 32 35 18 18 19 29 8 29 -2 24 5 4 -2 -1 -1 3 16 23 25 28 22 42 40 36 48
21 9 7 29 32 22 12 23 41 22 25 33 44 50 57 38 54 40 41 21 27 21 33 29 38 78 59 50 51 36 46 25 29 24 24 11 13 19 24 15 7 8 9 14 21 17 32 41 25 19 20 32 33 68
-14 4 18 26 17 21 20 22 9 33 23 31 31 27 30 31 41 51 21 51 49 40 37 24 37 25 50 82 50 36 38 21 36 37 56 23 37 36 29 35 22 21 24 23 26 27 30 24 50 20 34 50 40 13
25 26 19 17 17 24 27 30 31 37 29 32 36 39 44 49 74 36 54 62 83 89 61 72 67 61 64 70 68 91 79 16 32 49 61 35 26 36 54 35 29 43 25 32 10 25 24 14 31 52 43 40 48 50
30 -4 0 11 20 24 36 35 43 36 41 44 44 38 35 47 60 56 56 72 92 70 116 86 44 42 75 116 68 94 98 36 29 40 63 42 41 51 36 46 25 37 32 -2 14 11 14 20 2 38 38 58 61 48
8 3 15 9 20 20 26 32 39 46 43 53 56 53 79 94 61 78 69 102 103 109 71 65 54 62 63 69 53 79 142 73 53 36 82 49 42 41 55 50 15 59 41 35 41 24 29 15 22 30 36 37 59 61
19 24 18 21 26 19 24 28 38 44 37 50 55 72 80 73 81 76 125 145 156 115 81 50 64 39 50 91 59 64 69 65 48 51 93 49 57 55 58 53 52 83 52 17 26 28 28 36 37 26 23 -1 -21 34
12 27 31 16 4 15 27 37 34 33 48 51 48 76 79 104 98 66 141 193 198 98 105 101 80 66 76 80 99 139 92 77 65 42 46 37 39 41 38 41 47 50 17 18 30 45 45 39 36 37 39 38 50 51
13 19 17 38 31 30 31 24 45 66 56 71 66 84 70 103 85 73 101 210 171 212 73 131 110 110 119 122 127 73 74 57 95 39 27 51 49 43 22 18 38 17 4 29 36 35 42 63 65 59 53 55 56 47
26 45 25 36 41 49 63 35 54 15 27 42 57 29 35 45 62 57 127 103 143 104 191 76 144 126 121 86 121 122 95 52 58 70 57 50 57 53 32 22 14 9 5 57 75 34 23 28 37 34 39 30 37 26
25 29 18 14 27 37 84 59 17 -4 23 34 44 53 66 72 122 92 83 117 101 140 85 71 115 134 55 71 84 85 74 107 68 56 58 61 55 38 27 21 16 16 18 11 25 57 10 7 19 15 15 28 29 30
24 32 37 21 28 12 30 21 35 60 37 30 34 40 29 77 144 73 73 80 55 110 92 76 87 81 76 120 114 69 48 72 139 91 29 6 25 42 35 30 22 27 29 31 33 37 37 29 33 38 38 38 33 21
41 37 33 4 10 61 60 34 23 19 29 45 36 66 68 92 84 97 87 56 70 71 140 50 39 160 159 77 95 112 58 28 52 50 58 39 34 31 22 24 29 38 31 24 25 29 28 31 32 29 28 34 28 25
45 36 30 21 22 44 41 47 40 41 20 26 46 54 40 76 125 121 92 93 75 73 107 140 151 165 113 77 60 62 50 94 85 84 59 57 46 24 18 28 38 33 41 39 31 34 30 28 28 25 19 18 17 17

GFSWCAN_con_3kmhel_036.txt.gz
Helicity
52 57 52 63 77 79 78 80 82 61 43 33 38 50 54 69 70 106 176 221 255 311 231 98 38 31 15 37 48 -10 2 39 14 8 11 41 75 65 231 109 170 -25 -24 107 265 360 385 14 221 206 226 173 309 351
51 51 56 75 84 80 69 75 56 51 52 36 43 54 71 85 65 80 143 168 185 257 192 46 31 61 39 25 12 13 11 -7 -7 -15 17 38 160 85 170 346 10 141 178 121 77 173 112 67 99 90 139 97 151 279
56 61 73 82 86 77 61 50 36 51 40 39 43 57 63 49 47 76 111 145 163 232 183 163 112 27 43 12 5 65 11 -25 -24 -37 -24 -4 39 113 170 173 125 121 162 123 176 155 167 134 111 88 111 156 137 177
62 69 75 77 67 51 44 44 46 42 31 36 42 49 32 41 42 62 98 114 128 132 175 103 48 81 21 15 -2 32 40 4 -18 -39 -21 -19 -4 48 70 125 224 180 190 155 160 191 171 164 156 186 115 153 183 159
75 79 74 67 45 37 41 48 22 31 39 41 40 20 8 29 33 46 88 112 109 104 135 127 104 170 71 74 31 10 65 40 37 54 88 107 58 -8 -17 7 17 89 152 211 200 170 173 193 173 153 130 100 97 132
89 73 71 56 57 62 49 33 20 31 43 29 20 12 -2 26 54 61 86 178 197 143 108 50 222 345 270 219 195 123 85 79 133 223 287 250 298 189 189 173 307 344 311 186 69 150 282 270 263 307 321 196 95 106
80 67 77 68 72 62 57 47 27 57 30 25 19 2 25 26 70 39 44 152 172 143 59 115 172 315 192 184 256 281 291 266 241 314 281 241 214 257 390 540 472 512 452 383 275 125 64 59 146 298 427 385 217 98
72 67 71 67 68 74 58 53 66 62 29 33 33 27 36 41 46 60 96 132 95 172 123 65 80 73 75 100 182 204 212 276 348 327 354 362 257 262 340 431 472 142 28 33 -4 44 68 58 57 106 150 197 469 315
65 73 74 85 101 95 72 66 64 6 -2 5 39 40 65 73 60 53 73 116 125 105 106 130 118 110 158 142 100 171 257 246 332 315 307 363 318 298 263 231 277 474 161 0 31 51 33 59 53 127 138 136 194 172
79 65 91 109 108 101 96 71 28 -12 15 36 79 72 90 76 73 49 75 86 103 107 107 134 140 117 91 114 99 111 145 176 221 230 304 299 263 206 187 -29 59 364 418 143 -1 41 51 81 49 50 54 99 88 100
79 73 89 98 97 93 74 85 10 19 66 57 87 74 61 91 33 34 39 30 39 46 112 120 171 137 159 85 90 113 88 127 152 168 184 183 236 136 123 85 -36 -10 223 503 355 48 47 106 79 47 17 14 32 63
86 84 74 75 86 114 77 55 43 51 18 16 20 55 101 96 43 17 11 19 31 56 98 87 72 160 115 100 80 110 56 104 89 110 82 132 114 40 78 61 80 -81 0 184 503 606 508 385 307 265 151 141 160 255
99 84 77 72 75 106 39 47 66 -45 4 51 67 40 32 31 20 30 35 45 48 100 118 143 113 96 116 89 67 29 50 68 92 71 48 46 -22 3 -34 -3 8 -42 -74 -16 14 81 276 446 607 614 610 597 703 536
102 80 64 52 62 71 55 46 91 69 23 28 21 22 9 18 36 39 25 47 51 35 87 55 18 59 37 62 22 14 20 55 45 21 12 3 0 25 25 -32 -19 27 -63 -56 -86 -86 -63 -14 120 140 244 378 510 540
95 76 51 44 45 48 60 44 103 88 33 10 25 33 10 14 12 15 24 24 12 -21 25 22 -6 37 52 43 26 29 34 27 28 16 11 15 15 10 10 21 16 -7 -8 -23 -22 -83 -77 -100 -81 -16 25 75 253 233
81 78 37 16 -3 27 30 35 73 42 8 26 22 7 10 8 4 5 9 8 10 28 24 49 32 37 51 55 39 40 40 16 14 34 35 37 16 1 8 4 8 6 2 9 -11 -11 -65 -91 -108 -117 -119 -97 -50 -17
60 36 -29 -12 32 62 47 36 26 20 17 20 26 15 12 12 17 15 19 24 34 28 33 44 54 48 46 61 49 44 26 29 23 28 43 56 34 11 -9 2 2 5 6 15 23 0 20 -25 -39 -63 -104 -72 -58 -94
43 -2 -15 24 23 25 45 29 27 14 26 18 24 20 18 19 16 13 9 9 22 24 34 42 38 43 49 40 39 48 52 49 99 50 47 26 37 -15 -11 -5 -19 -19 -10 -4 22 4 3 55 54 2 4 11 -7 -51
37 54 71 62 5 23 25 32 7 38 35 33 9 16 6 37 34 26 16 11 9 9 24 32 48 46 44 50 41 40 48 50 29 24 55 71 39 9 60 24 -5 -14 -17 -3 -7 11 1 -1 28 49 35 9 33 95
75 78 67 56 41 20 32 45 25 33 41 36 22 40 13 6 57 29 36 17 9 27 34 42 48 48 46 52 42 33 35 26 29 25 26 24 30 2 50 28 4 -16 2 -13 9 26 25 16 -9 -17 -8 24 40 33
-4 25 20 42 35 29 5 2 24 53 17 27 57 69 32 20 47 54 43 39 34 35 50 51 50 83 74 62 54 33 42 26 21 15 19 20 21 8 34 13 19 8 19 13 17 26 29 37 36 22 50 27 17 11
6 6 12 42 12 30 20 42 19 32 34 14 28 22 39 39 30 77 16 38 70 60 50 50 67 43 60 74 38 35 81 45 23 19 48 21 18 21 42 28 22 33 16 28 19 30 40 11 20 15 28 17 7 -4
33 26 17 18 18 31 31 25 27 48 38 26 25 39 40 53 97 62 39 74 124 135 136 124 72 58 60 29 55 87 152 67 36 40 41 41 15 13 18 10 13 40 42 18 -1 13 26 8 -2 6 42 43 14 22
23 2 -1 19 38 37 35 28 40 39 49 48 69 66 39 84 58 26 55 72 163 83 145 102 61 31 78 84 48 72 112 70 46 49 45 70 39 40 1 24 11 50 90 3 3 15 26 26 16 29 45 31 53 31
21 11 33 25 17 28 32 26 30 24 37 56 71 99 97 102 73 54 46 80 147 185 223 116 86 73 36 47 51 67 117 88 69 45 95 75 63 48 48 22 25 84 91 11 19 20 28 32 40 32 60 20 35 54
17 36 36 26 37 31 14 25 37 35 23 39 66 97 79 55 22 67 68 164 142 179 183 160 100 52 38 62 98 124 108 105 69 67 94 49 67 61 53 46 48 95 79 30 34 59 63 69 59 48 39 24 -5 69
25 42 56 54 23 20 28 14 12 12 13 -17 28 84 166 152 46 98 76 61 101 151 168 179 151 38 38 85 62 81 74 83 117 43 65 40 22 50 27 35 59 20 14 22 61 69 70 65 69 74 78 92 81 64
26 3 16 60 61 12 55 41 -21 80 65 29 22 119 84 59 105 31 68 95 93 219 210 167 132 37 126 65 76 91 64 27 66 39 16 50 24 41 57 25 53 48 14 44 22 55 64 71 72 71 63 85 68 36
-4 -24 -16 17 83 78 103 87 111 50 83 61 54 54 56 126 132 35 42 77 135 153 147 71 57 82 70 38 74 65 56 89 98 52 31 48 58 68 71 51 31 28 20 72 72 55 20 25 55 48 71 31 37 21
59 80 54 37 22 66 49 38 35 47 47 55 30 23 77 48 90 61 63 96 122 89 62 72 54 43 32 21 33 87 16 51 84 148 72 63 67 62 81 45 31 40 40 33 44 42 12 -14 18 -5 32 51 46 45
47 -1 28 26 23 43 80 100 47 37 65 61 101 110 -19 183 124 36 65 75 51 42 44 54 72 60 84 87 145 132 71 42 85 126 41 0 33 74 59 46 29 50 57 42 40 50 60 51 49 58 49 43 37 35
29 39 41 25 10 24 21 63 47 24 30 41 89 22 99 136 141 102 59 62 27 47 86 60 123 226 189 88 90 102 64 111 125 144 173 98 46 48 32 19 26 42 48 49 42 43 39 39 37 33 26 26 29 27
0 23 26 17 26 50 81 50 68 65 35 54 151 68 98 194 141 148 118 75 65 56 101 137 137 124 84 72 56 45 130 190 131 78 61 50 60 52 65 91 81 58 43 86 83 58 53 39 31 34 30 27 25 20